NOO2501 SKBO-KMIA

Flight info

Callsign NOO2501
Flight time 3h 17m
Altitude 34000
Route TOBKI4R VASIL UL423 PULOX DCT ARORO UN653 PML/N0468F350 UM795 COLBY/N0470F340 DCT EPSIM UM779 ZEUSS VIICE2
Aircraft B752/M-SDE3FGHIM3RWXY/LB1

Departure

Time 2026-05-04 14:42
Airport El Dorado International Airport (SKBO)

Arrival

Time 2026-05-04 17:59
Airport Miami International Airport (KMIA)
Time Latitude Longitude Altitude Speed Heading
2026-05-04 14:14 4.69300 -74.14093 8367 ft 0 kts 37°
2026-05-04 14:28 4.69288 -74.14102 8366 ft 2 kts 37°
2026-05-04 14:28 4.69276 -74.14111 8366 ft 2 kts 38°
2026-05-04 14:28 4.69264 -74.14120 8366 ft 2 kts 37°
2026-05-04 14:29 4.69239 -74.14137 8366 ft 2 kts 10°
2026-05-04 14:29 4.69211 -74.14130 8366 ft 2 kts 317°
2026-05-04 14:30 4.69202 -74.14119 8366 ft 2 kts 304°
2026-05-04 14:30 4.69193 -74.14107 8366 ft 2 kts 309°
2026-05-04 14:30 4.69186 -74.14098 8366 ft 0 kts 308°
2026-05-04 14:32 4.69186 -74.14099 8366 ft 0 kts 308°
2026-05-04 14:34 4.69190 -74.14104 8366 ft 3 kts 308°
2026-05-04 14:34 4.69217 -74.14138 8366 ft 7 kts 307°
2026-05-04 14:34 4.69253 -74.14186 8366 ft 9 kts 307°
2026-05-04 14:34 4.69301 -74.14249 8366 ft 12 kts 307°
2026-05-04 14:35 4.69358 -74.14325 8366 ft 15 kts 307°
2026-05-04 14:35 4.69428 -74.14417 8366 ft 17 kts 307°
2026-05-04 14:35 4.69506 -74.14520 8366 ft 20 kts 307°
2026-05-04 14:35 4.69595 -74.14637 8366 ft 21 kts 307°
2026-05-04 14:36 4.69686 -74.14757 8366 ft 22 kts 307°
2026-05-04 14:36 4.69782 -74.14885 8366 ft 23 kts 307°
2026-05-04 14:36 4.69882 -74.15016 8366 ft 24 kts 307°
2026-05-04 14:36 4.69978 -74.15144 8366 ft 21 kts 307°
2026-05-04 14:37 4.70060 -74.15252 8366 ft 18 kts 307°
2026-05-04 14:37 4.70140 -74.15356 8366 ft 20 kts 307°
2026-05-04 14:37 4.70230 -74.15476 8366 ft 22 kts 307°
2026-05-04 14:37 4.70332 -74.15611 8366 ft 25 kts 307°
2026-05-04 14:38 4.70444 -74.15759 8366 ft 28 kts 307°
2026-05-04 14:38 4.70559 -74.15910 8366 ft 26 kts 307°
2026-05-04 14:38 4.70667 -74.16052 8366 ft 24 kts 308°
2026-05-04 14:38 4.70764 -74.16181 8366 ft 22 kts 307°
2026-05-04 14:39 4.70854 -74.16300 8366 ft 20 kts 307°
2026-05-04 14:39 4.70934 -74.16409 8366 ft 18 kts 305°
2026-05-04 14:39 4.71007 -74.16503 8366 ft 16 kts 309°
2026-05-04 14:40 4.71125 -74.16658 8366 ft 12 kts 308°
2026-05-04 14:40 4.71172 -74.16721 8366 ft 10 kts 307°
2026-05-04 14:40 4.71197 -74.16770 8366 ft 4 kts 267°
2026-05-04 14:40 4.71188 -74.16801 8366 ft 4 kts 237°
2026-05-04 14:41 4.71163 -74.16823 8366 ft 6 kts 218°
2026-05-04 14:41 4.71096 -74.16877 8366 ft 15 kts 217°
2026-05-04 14:41 4.70816 -74.16608 8366 ft 64 kts 127°
2026-05-04 14:42 4.69783 -74.15243 8367 ft 178 kts 127°
2026-05-04 14:42 4.68957 -74.14144 8539 ft 212 kts 126°
2026-05-04 14:42 4.67954 -74.13088 9280 ft 216 kts 147°
2026-05-04 14:43 4.66531 -74.12599 9630 ft 221 kts 179°
2026-05-04 14:43 4.65025 -74.12954 9683 ft 232 kts 211°
2026-05-04 14:43 4.63900 -74.14090 9876 ft 235 kts 241°
2026-05-04 14:43 4.63370 -74.15668 10014 ft 244 kts 260°
2026-05-04 14:44 4.63008 -74.17299 10409 ft 245 kts 252°
2026-05-04 14:44 4.62345 -74.18900 10636 ft 251 kts 242°
2026-05-04 14:44 4.61550 -74.20463 10912 ft 257 kts 252°
2026-05-04 14:44 4.61187 -74.22265 10955 ft 273 kts 261°
2026-05-04 14:45 4.60867 -74.24210 10976 ft 290 kts 259°
2026-05-04 14:45 4.60497 -74.26206 11360 ft 293 kts 259°
2026-05-04 14:45 4.60245 -74.28220 11748 ft 295 kts 266°
2026-05-04 14:45 4.60143 -74.30281 12121 ft 298 kts 267°
2026-05-04 14:46 4.60030 -74.32366 12516 ft 300 kts 266°
2026-05-04 14:46 4.59916 -74.34480 12895 ft 302 kts 266°
2026-05-04 14:46 4.59801 -74.36583 13256 ft 305 kts 266°
2026-05-04 14:46 4.59697 -74.38702 13613 ft 307 kts 270°
2026-05-04 14:47 4.60093 -74.40790 13951 ft 309 kts 295°
2026-05-04 14:47 4.61226 -74.42608 14289 ft 309 kts 308°
2026-05-04 14:47 4.62534 -74.44321 14647 ft 311 kts 309°
2026-05-04 14:47 4.63864 -74.46054 14990 ft 314 kts 309°
2026-05-04 14:48 4.65203 -74.47778 15345 ft 315 kts 309°
2026-05-04 14:48 4.66555 -74.49509 15670 ft 318 kts 309°
2026-05-04 14:48 4.67920 -74.51252 15995 ft 320 kts 310°
2026-05-04 14:48 4.69291 -74.53000 16332 ft 321 kts 310°
2026-05-04 14:49 4.70668 -74.54755 16633 ft 324 kts 310°
2026-05-04 14:49 4.72088 -74.56563 16703 ft 335 kts 310°
2026-05-04 14:49 4.73538 -74.58409 16721 ft 348 kts 310°
2026-05-04 14:49 4.75176 -74.60240 16742 ft 358 kts 321°
2026-05-04 14:50 4.77172 -74.61787 16770 ft 368 kts 326°
2026-05-04 14:50 4.79259 -74.63339 16786 ft 381 kts 325°
2026-05-04 14:50 4.81403 -74.64937 16802 ft 392 kts 325°
2026-05-04 14:50 4.83631 -74.66593 16809 ft 404 kts 325°
2026-05-04 14:51 4.85877 -74.68314 16914 ft 412 kts 323°
2026-05-04 14:51 4.88114 -74.70074 17316 ft 412 kts 324°
2026-05-04 14:51 4.90388 -74.71858 17560 ft 416 kts 324°
2026-05-04 14:51 4.92575 -74.73736 17895 ft 418 kts 316°
2026-05-04 14:52 4.94461 -74.76001 18159 ft 423 kts 305°
2026-05-04 14:52 4.95926 -74.78539 18491 ft 425 kts 297°
2026-05-04 14:52 4.97248 -74.81201 18820 ft 426 kts 297°
2026-05-04 14:52 4.98565 -74.83866 19104 ft 428 kts 297°
2026-05-04 14:53 4.99873 -74.86533 19423 ft 429 kts 297°
2026-05-04 14:53 5.01176 -74.89199 19694 ft 431 kts 297°
2026-05-04 14:53 5.02489 -74.91891 20000 ft 432 kts 297°
2026-05-04 14:53 5.03811 -74.94604 20282 ft 434 kts 297°
2026-05-04 14:54 5.05131 -74.97317 20576 ft 435 kts 297°
2026-05-04 14:54 5.06455 -75.00037 20994 ft 433 kts 297°
2026-05-04 14:54 5.07773 -75.02746 21262 ft 436 kts 297°
2026-05-04 14:54 5.09102 -75.05476 21624 ft 436 kts 297°
2026-05-04 14:55 5.10440 -75.08229 21925 ft 438 kts 296°
2026-05-04 14:55 5.11781 -75.10985 22283 ft 438 kts 296°
2026-05-04 14:55 5.13102 -75.13702 22563 ft 440 kts 296°
2026-05-04 14:55 5.14442 -75.16447 22892 ft 441 kts 298°
2026-05-04 14:56 5.16042 -75.19071 23145 ft 442 kts 308°
2026-05-04 14:56 5.18004 -75.21443 23475 ft 442 kts 312°
2026-05-04 14:56 5.20031 -75.23762 23727 ft 444 kts 312°
2026-05-04 14:56 5.22059 -75.26076 24047 ft 445 kts 312°
2026-05-04 14:57 5.24101 -75.28396 24289 ft 447 kts 312°
2026-05-04 14:57 5.26159 -75.30730 24559 ft 448 kts 312°
2026-05-04 14:57 5.28236 -75.33082 24854 ft 449 kts 312°
2026-05-04 14:57 5.30310 -75.35429 25054 ft 452 kts 312°
2026-05-04 14:58 5.32368 -75.37759 25320 ft 453 kts 312°
2026-05-04 14:58 5.34468 -75.40135 25608 ft 454 kts 312°
2026-05-04 14:58 5.36551 -75.42492 25823 ft 456 kts 312°
2026-05-04 14:58 5.38660 -75.44879 26072 ft 458 kts 312°
2026-05-04 14:59 5.40760 -75.47256 26334 ft 458 kts 312°
2026-05-04 14:59 5.42885 -75.49661 26560 ft 460 kts 312°
2026-05-04 14:59 5.47114 -75.54449 27030 ft 462 kts 312°
2026-05-04 15:00 5.49256 -75.56873 27269 ft 464 kts 312°
2026-05-04 15:00 5.51378 -75.59277 27488 ft 465 kts 312°
2026-05-04 15:00 5.53520 -75.61703 27720 ft 466 kts 312°
2026-05-04 15:01 5.57832 -75.66586 28166 ft 469 kts 312°
2026-05-04 15:01 5.59988 -75.69029 28405 ft 470 kts 312°
2026-05-04 15:01 5.62157 -75.71487 28611 ft 471 kts 312°
2026-05-04 15:01 5.64326 -75.73944 28830 ft 472 kts 312°
2026-05-04 15:02 5.66499 -75.76407 29041 ft 473 kts 312°
2026-05-04 15:02 5.68660 -75.78856 29254 ft 474 kts 312°
2026-05-04 15:02 5.70913 -75.81275 29461 ft 475 kts 317°
2026-05-04 15:02 5.73433 -75.83389 29660 ft 475 kts 323°
2026-05-04 15:03 5.76038 -75.85421 29864 ft 476 kts 323°
2026-05-04 15:03 5.78676 -75.87480 30047 ft 478 kts 323°
2026-05-04 15:03 5.81280 -75.89507 30216 ft 479 kts 323°
2026-05-04 15:03 5.83913 -75.91553 30374 ft 481 kts 323°
2026-05-04 15:04 5.86565 -75.93610 30516 ft 483 kts 323°
2026-05-04 15:04 5.89248 -75.95692 30527 ft 489 kts 323°
2026-05-04 15:04 5.91910 -75.97755 30629 ft 491 kts 323°
2026-05-04 15:04 5.94598 -75.99839 30906 ft 490 kts 323°
2026-05-04 15:05 5.97299 -76.01934 31170 ft 489 kts 323°
2026-05-04 15:05 5.99985 -76.04016 31399 ft 488 kts 323°
2026-05-04 15:05 6.02642 -76.06078 31637 ft 488 kts 323°
2026-05-04 15:05 6.05349 -76.08176 31875 ft 487 kts 323°
2026-05-04 15:06 6.08020 -76.10249 32097 ft 487 kts 323°
2026-05-04 15:06 6.10698 -76.12326 32294 ft 487 kts 323°
2026-05-04 15:06 6.13355 -76.14387 32551 ft 486 kts 323°
2026-05-04 15:07 6.18687 -76.18525 33043 ft 485 kts 323°
2026-05-04 15:07 6.21323 -76.20570 33289 ft 485 kts 323°
2026-05-04 15:07 6.24005 -76.22652 33550 ft 484 kts 323°
2026-05-04 15:07 6.26648 -76.24704 33801 ft 483 kts 323°
2026-05-04 15:08 6.29303 -76.26765 34029 ft 483 kts 323°
2026-05-04 15:08 6.34596 -76.30875 34046 ft 482 kts 323°
2026-05-04 15:09 6.39862 -76.34965 34048 ft 482 kts 323°
2026-05-04 15:09 6.45154 -76.39077 34047 ft 481 kts 323°
2026-05-04 15:10 6.53071 -76.45231 34048 ft 481 kts 323°
2026-05-04 15:11 6.60979 -76.51380 34048 ft 482 kts 323°
2026-05-04 15:11 6.66277 -76.55501 34048 ft 482 kts 322°
2026-05-04 15:12 6.71555 -76.59607 34048 ft 482 kts 322°
2026-05-04 15:12 6.76835 -76.63717 34048 ft 482 kts 322°
2026-05-04 15:13 6.82122 -76.67833 34047 ft 482 kts 322°
2026-05-04 15:13 6.87413 -76.71952 34047 ft 482 kts 322°
2026-05-04 15:14 6.92718 -76.76084 34047 ft 482 kts 322°
2026-05-04 15:14 6.98000 -76.80200 34047 ft 481 kts 322°
2026-05-04 15:15 7.03255 -76.84296 34037 ft 482 kts 322°
2026-05-04 15:15 7.08523 -76.88403 34012 ft 482 kts 322°
2026-05-04 15:16 7.16454 -76.94589 33977 ft 482 kts 322°
2026-05-04 15:17 7.24390 -77.00781 33966 ft 481 kts 322°
2026-05-04 15:17 7.32271 -77.06933 33966 ft 481 kts 322°
2026-05-04 15:18 7.37554 -77.11058 33966 ft 481 kts 322°
2026-05-04 15:19 7.45459 -77.17233 33966 ft 481 kts 322°
2026-05-04 15:19 7.53353 -77.23403 33966 ft 481 kts 322°
2026-05-04 15:20 7.58628 -77.27528 33966 ft 481 kts 322°
2026-05-04 15:20 7.63919 -77.31667 33966 ft 481 kts 322°
2026-05-04 15:21 7.69159 -77.35766 33966 ft 481 kts 322°
2026-05-04 15:22 7.76521 -77.42586 33968 ft 481 kts 313°
2026-05-04 15:22 7.83251 -77.50011 33967 ft 480 kts 312°
2026-05-04 15:23 7.87748 -77.54998 33967 ft 480 kts 312°
2026-05-04 15:23 7.92230 -77.59976 33967 ft 480 kts 312°
2026-05-04 15:24 8.01164 -77.69905 33966 ft 480 kts 312°
2026-05-04 15:25 8.05643 -77.74887 33966 ft 480 kts 312°
2026-05-04 15:26 8.12328 -77.82327 33965 ft 480 kts 312°
2026-05-04 15:26 8.19043 -77.89804 33965 ft 480 kts 312°
2026-05-04 15:27 8.25743 -77.97268 33966 ft 480 kts 312°
2026-05-04 15:28 8.32467 -78.04763 33962 ft 480 kts 312°
2026-05-04 15:29 8.39869 -78.11415 33957 ft 479 kts 331°
2026-05-04 15:30 8.52643 -78.14455 33939 ft 477 kts 356°
2026-05-04 15:30 8.62511 -78.15117 33939 ft 477 kts 357°
2026-05-04 15:31 8.72413 -78.15716 33939 ft 476 kts 357°
2026-05-04 15:32 8.88881 -78.16686 33939 ft 475 kts 357°
2026-05-04 15:34 9.05288 -78.17650 33939 ft 474 kts 357°
2026-05-04 15:34 9.15130 -78.18228 33939 ft 474 kts 357°
2026-05-04 15:35 9.24963 -78.18806 33939 ft 473 kts 357°
2026-05-04 15:36 9.34784 -78.19384 33939 ft 473 kts 357°
2026-05-04 15:36 9.41318 -78.19769 33939 ft 473 kts 357°
2026-05-04 15:37 9.47855 -78.20153 33946 ft 472 kts 357°
2026-05-04 15:37 9.54370 -78.20537 33971 ft 471 kts 357°
2026-05-04 15:38 9.60894 -78.20921 33996 ft 470 kts 357°
2026-05-04 15:38 9.67399 -78.21305 34000 ft 470 kts 357°
2026-05-04 15:39 9.73905 -78.21688 33999 ft 470 kts 357°
2026-05-04 15:40 9.83633 -78.22263 33999 ft 470 kts 357°
2026-05-04 15:40 9.90128 -78.22646 33999 ft 470 kts 357°
2026-05-04 15:41 9.96630 -78.23029 33999 ft 470 kts 357°
2026-05-04 15:41 10.03162 -78.23415 33999 ft 470 kts 357°
2026-05-04 15:42 10.09657 -78.23799 33998 ft 470 kts 357°
2026-05-04 15:42 10.16143 -78.24183 33976 ft 470 kts 357°
2026-05-04 15:43 10.22631 -78.24566 33951 ft 471 kts 357°
2026-05-04 15:43 10.29170 -78.24953 33938 ft 471 kts 357°
2026-05-04 15:44 10.35702 -78.25339 33939 ft 472 kts 357°
2026-05-04 15:44 10.42234 -78.25726 33939 ft 472 kts 357°
2026-05-04 15:45 10.48748 -78.26112 33939 ft 472 kts 357°
2026-05-04 15:45 10.55267 -78.26498 33939 ft 472 kts 357°
2026-05-04 15:46 10.61807 -78.26886 33939 ft 473 kts 357°
2026-05-04 15:46 10.68358 -78.27274 33939 ft 473 kts 357°
2026-05-04 15:47 10.74867 -78.27661 33939 ft 473 kts 357°
2026-05-04 15:47 10.81458 -78.28052 33939 ft 474 kts 356°
2026-05-04 15:48 10.87993 -78.28440 33938 ft 473 kts 356°
2026-05-04 15:48 10.97823 -78.29024 33939 ft 475 kts 356°
2026-05-04 15:49 11.04371 -78.29414 33938 ft 474 kts 356°
2026-05-04 15:49 11.10951 -78.29805 33939 ft 474 kts 356°
2026-05-04 15:50 11.17535 -78.30196 33939 ft 476 kts 356°
2026-05-04 15:50 11.24115 -78.30588 33939 ft 475 kts 356°
2026-05-04 15:51 11.30657 -78.30978 33939 ft 475 kts 356°
2026-05-04 15:51 11.37234 -78.31370 33939 ft 476 kts 356°
2026-05-04 15:52 11.43849 -78.31764 33939 ft 476 kts 356°
2026-05-04 15:52 11.50414 -78.32156 33939 ft 477 kts 356°
2026-05-04 15:53 11.55931 -78.32484 33938 ft 477 kts 356°
2026-05-04 15:53 11.63601 -78.32943 33939 ft 477 kts 356°
2026-05-04 15:54 11.70204 -78.33337 33939 ft 477 kts 356°
2026-05-04 15:54 11.76817 -78.33732 33939 ft 477 kts 356°
2026-05-04 15:55 11.83390 -78.34126 33939 ft 477 kts 356°
2026-05-04 15:55 11.90105 -78.34527 33946 ft 478 kts 356°
2026-05-04 15:56 11.96694 -78.34921 33957 ft 478 kts 356°
2026-05-04 15:56 12.03323 -78.35318 33966 ft 477 kts 356°
2026-05-04 15:57 12.09958 -78.35716 33966 ft 477 kts 356°
2026-05-04 15:57 12.16550 -78.36110 33965 ft 477 kts 356°
2026-05-04 15:58 12.23156 -78.36506 33966 ft 478 kts 356°
2026-05-04 15:58 12.29831 -78.36906 33965 ft 477 kts 356°
2026-05-04 15:59 12.36434 -78.37303 33965 ft 477 kts 356°
2026-05-04 15:59 12.43058 -78.37701 33965 ft 477 kts 356°
2026-05-04 16:00 12.49694 -78.38100 33966 ft 477 kts 356°
2026-05-04 16:00 12.56308 -78.38498 33965 ft 477 kts 356°
2026-05-04 16:01 12.62952 -78.38898 33965 ft 477 kts 356°
2026-05-04 16:01 12.69558 -78.39295 33965 ft 476 kts 356°
2026-05-04 16:02 12.76158 -78.39693 33965 ft 476 kts 356°
2026-05-04 16:03 12.86025 -78.40287 33965 ft 476 kts 355°
2026-05-04 16:03 12.92621 -78.40685 33965 ft 476 kts 355°
2026-05-04 16:04 12.99203 -78.41083 33965 ft 476 kts 355°
2026-05-04 16:04 13.09102 -78.41680 33965 ft 475 kts 355°
2026-05-04 16:05 13.15640 -78.42075 33965 ft 475 kts 355°
2026-05-04 16:06 13.25524 -78.42673 33964 ft 475 kts 355°
2026-05-04 16:07 13.38683 -78.43469 33964 ft 475 kts 355°
2026-05-04 16:08 13.51898 -78.44270 33964 ft 475 kts 355°
2026-05-04 16:09 13.68481 -78.45275 33964 ft 475 kts 355°
2026-05-04 16:10 13.81683 -78.46078 33970 ft 474 kts 355°
2026-05-04 16:11 13.94892 -78.46881 33991 ft 474 kts 354°
2026-05-04 16:12 14.14755 -78.48090 33991 ft 474 kts 354°
2026-05-04 16:13 14.27957 -78.48895 33991 ft 474 kts 354°
2026-05-04 16:14 14.41157 -78.49701 33990 ft 474 kts 354°
2026-05-04 16:16 14.57597 -78.50706 33990 ft 473 kts 354°
2026-05-04 16:17 14.74025 -78.51712 33990 ft 473 kts 354°
2026-05-04 16:18 14.87113 -78.52515 33990 ft 473 kts 354°
2026-05-04 16:19 15.03557 -78.52900 33993 ft 476 kts
2026-05-04 16:20 15.20071 -78.51212 33990 ft 475 kts
2026-05-04 16:22 15.36548 -78.49496 33990 ft 475 kts
2026-05-04 16:23 15.56333 -78.47428 33994 ft 475 kts
2026-05-04 16:25 15.76020 -78.45367 34017 ft 474 kts
2026-05-04 16:26 15.98997 -78.42956 34017 ft 474 kts
2026-05-04 16:28 16.15415 -78.41228 34018 ft 474 kts
2026-05-04 16:29 16.38391 -78.38808 34018 ft 475 kts
2026-05-04 16:31 16.54785 -78.37077 34017 ft 475 kts
2026-05-04 16:32 16.74451 -78.34997 34018 ft 476 kts
2026-05-04 16:33 16.87639 -78.33600 34018 ft 477 kts
2026-05-04 16:34 16.97564 -78.32546 34018 ft 478 kts
2026-05-04 16:35 17.17354 -78.30444 34018 ft 478 kts
2026-05-04 16:36 17.27273 -78.29388 34018 ft 479 kts
2026-05-04 16:37 17.37166 -78.28334 34018 ft 479 kts
2026-05-04 16:38 17.50429 -78.26919 34018 ft 479 kts
2026-05-04 16:39 17.66942 -78.25155 34018 ft 480 kts
2026-05-04 16:40 17.80193 -78.23737 34018 ft 480 kts
2026-05-04 16:41 17.96788 -78.21957 34019 ft 480 kts
2026-05-04 16:43 18.13310 -78.20182 34018 ft 480 kts
2026-05-04 16:43 18.23252 -78.19112 34018 ft 480 kts
2026-05-04 16:45 18.43185 -78.16965 34019 ft 481 kts
2026-05-04 16:46 18.59795 -78.15171 34019 ft 481 kts
2026-05-04 16:47 18.73097 -78.13731 34019 ft 481 kts
2026-05-04 16:48 18.86396 -78.12291 34019 ft 482 kts
2026-05-04 16:49 18.99710 -78.10846 34019 ft 483 kts
2026-05-04 16:50 19.13077 -78.09392 34018 ft 484 kts
2026-05-04 16:51 19.23064 -78.08305 34019 ft 485 kts
2026-05-04 16:52 19.36452 -78.06846 34019 ft 485 kts
2026-05-04 16:53 19.46505 -78.05748 34019 ft 485 kts
2026-05-04 16:54 19.59930 -78.04280 34020 ft 486 kts
2026-05-04 16:55 19.80037 -78.02187 34039 ft 483 kts 356°
2026-05-04 16:56 19.96459 -78.04698 34048 ft 477 kts 346°
2026-05-04 16:57 20.06274 -78.06459 34048 ft 477 kts 346°
2026-05-04 16:58 20.19318 -78.08814 34045 ft 477 kts 346°
2026-05-04 17:00 20.38931 -78.12367 34045 ft 477 kts 346°
2026-05-04 17:01 20.55280 -78.15335 34046 ft 477 kts 346°
2026-05-04 17:02 20.68300 -78.17703 34046 ft 477 kts 346°
2026-05-04 17:03 20.78090 -78.19487 34046 ft 477 kts 345°
2026-05-04 17:03 20.87851 -78.21268 34046 ft 477 kts 345°
2026-05-04 17:04 21.00920 -78.23656 34046 ft 477 kts 345°
2026-05-04 17:05 21.13969 -78.26046 34043 ft 477 kts 345°
2026-05-04 17:06 21.23771 -78.27844 34043 ft 478 kts 345°
2026-05-04 17:07 21.32478 -78.29444 34043 ft 478 kts 345°
2026-05-04 17:07 21.40060 -78.30839 34043 ft 478 kts 345°
2026-05-04 17:08 21.49874 -78.32646 34043 ft 478 kts 344°
2026-05-04 17:09 21.56424 -78.33854 34043 ft 478 kts 344°
2026-05-04 17:09 21.62979 -78.35064 34043 ft 478 kts 344°
2026-05-04 17:10 21.79338 -78.38088 34043 ft 478 kts 344°
2026-05-04 17:11 21.85862 -78.39297 34043 ft 478 kts 344°
2026-05-04 17:12 21.95653 -78.41111 34044 ft 478 kts 344°
2026-05-04 17:13 22.12006 -78.44148 34040 ft 478 kts 344°
2026-05-04 17:14 22.25086 -78.46582 34040 ft 478 kts 344°
2026-05-04 17:15 22.34875 -78.48407 34040 ft 478 kts 344°
2026-05-04 17:16 22.47928 -78.50845 34041 ft 479 kts 344°
2026-05-04 17:17 22.61034 -78.53294 34041 ft 479 kts 344°
2026-05-04 17:18 22.74166 -78.55753 34041 ft 479 kts 344°
2026-05-04 17:19 22.87291 -78.58218 34041 ft 479 kts 344°
2026-05-04 17:20 23.00394 -78.60683 34041 ft 480 kts 343°
2026-05-04 17:20 23.10227 -78.62536 34041 ft 480 kts 343°
2026-05-04 17:21 23.23369 -78.65016 34037 ft 480 kts 343°
2026-05-04 17:22 23.29948 -78.66260 34050 ft 479 kts 343°
2026-05-04 17:23 23.43029 -78.68738 34053 ft 480 kts 343°
2026-05-04 17:24 23.52877 -78.70605 34057 ft 480 kts 343°
2026-05-04 17:25 23.66002 -78.73099 34040 ft 480 kts 343°
2026-05-04 17:26 23.79113 -78.75597 34041 ft 480 kts 343°
2026-05-04 17:27 23.95536 -78.78732 34041 ft 480 kts 342°
2026-05-04 17:27 24.01748 -78.80980 34051 ft 461 kts 325°
2026-05-04 17:28 24.07230 -78.84441 34041 ft 456 kts 322°
2026-05-04 17:29 24.23483 -78.95118 34036 ft 454 kts 322°
2026-05-04 17:31 24.36823 -79.03959 33756 ft 436 kts 322°
2026-05-04 17:31 24.44459 -79.09040 32221 ft 423 kts 322°
2026-05-04 17:32 24.49438 -79.12357 31229 ft 423 kts 322°
2026-05-04 17:33 24.56946 -79.17362 29741 ft 420 kts 323°
2026-05-04 17:33 24.59428 -79.19019 29251 ft 419 kts 323°
2026-05-04 17:34 24.66798 -79.23937 27798 ft 410 kts 323°
2026-05-04 17:34 24.69231 -79.25565 27323 ft 408 kts 323°
2026-05-04 17:35 24.76427 -79.30377 25925 ft 401 kts 323°
2026-05-04 17:35 24.81166 -79.33552 25012 ft 397 kts 324°
2026-05-04 17:35 24.83485 -79.35106 24566 ft 393 kts 324°
2026-05-04 17:36 24.85814 -79.36667 24121 ft 392 kts 324°
2026-05-04 17:36 24.88142 -79.38229 23678 ft 390 kts 324°
2026-05-04 17:36 24.90441 -79.39772 23240 ft 389 kts 324°
2026-05-04 17:36 24.92726 -79.41305 22808 ft 387 kts 324°
2026-05-04 17:37 24.95032 -79.42854 22372 ft 385 kts 324°
2026-05-04 17:37 24.97316 -79.44389 21941 ft 384 kts 324°
2026-05-04 17:37 24.99570 -79.45905 21518 ft 383 kts 324°
2026-05-04 17:37 25.01829 -79.47424 21094 ft 381 kts 323°
2026-05-04 17:38 25.04090 -79.48944 20671 ft 379 kts 323°
2026-05-04 17:38 25.06331 -79.50453 20253 ft 379 kts 323°
2026-05-04 17:38 25.08560 -79.51954 19838 ft 377 kts 323°
2026-05-04 17:38 25.10816 -79.53474 19418 ft 375 kts 323°
2026-05-04 17:39 25.15224 -79.56448 18597 ft 372 kts 323°
2026-05-04 17:39 25.17438 -79.57940 18187 ft 371 kts 323°
2026-05-04 17:39 25.19620 -79.59412 17784 ft 369 kts 323°
2026-05-04 17:40 25.21806 -79.60887 17380 ft 367 kts 323°
2026-05-04 17:40 25.24007 -79.62374 16976 ft 365 kts 323°
2026-05-04 17:40 25.26186 -79.63847 16576 ft 364 kts 323°
2026-05-04 17:40 25.28349 -79.65309 16182 ft 362 kts 323°
2026-05-04 17:41 25.30495 -79.66760 15800 ft 360 kts 323°
2026-05-04 17:41 25.32612 -79.68192 15381 ft 358 kts 323°
2026-05-04 17:41 25.34767 -79.69652 14963 ft 356 kts 323°
2026-05-04 17:41 25.36866 -79.71073 14569 ft 354 kts 323°
2026-05-04 17:42 25.38801 -79.72710 14181 ft 346 kts 310°
2026-05-04 17:42 25.40301 -79.74771 13847 ft 341 kts 302°
2026-05-04 17:42 25.41703 -79.76915 13512 ft 341 kts 302°
2026-05-04 17:42 25.43088 -79.79040 13169 ft 340 kts 302°
2026-05-04 17:43 25.44460 -79.81162 12835 ft 338 kts 302°
2026-05-04 17:43 25.45822 -79.83276 12511 ft 337 kts 302°
2026-05-04 17:43 25.47165 -79.85365 12241 ft 331 kts 302°
2026-05-04 17:43 25.48485 -79.87418 12208 ft 318 kts 302°
2026-05-04 17:44 25.49777 -79.89436 11878 ft 323 kts 302°
2026-05-04 17:44 25.51073 -79.91460 11493 ft 319 kts 302°
2026-05-04 17:44 25.52350 -79.93454 11186 ft 315 kts 303°
2026-05-04 17:44 25.53627 -79.95451 10935 ft 317 kts 303°
2026-05-04 17:45 25.54900 -79.97442 10671 ft 315 kts 303°
2026-05-04 17:45 25.56135 -79.99371 10660 ft 300 kts 303°
2026-05-04 17:45 25.57309 -80.01204 10634 ft 287 kts 303°
2026-05-04 17:45 25.58452 -80.02994 10520 ft 285 kts 303°
2026-05-04 17:46 25.59590 -80.04779 10215 ft 285 kts 303°
2026-05-04 17:46 25.60718 -80.06546 9948 ft 281 kts 303°
2026-05-04 17:46 25.61837 -80.08301 9722 ft 276 kts 303°
2026-05-04 17:46 25.62944 -80.10035 9526 ft 271 kts 304°
2026-05-04 17:47 25.64024 -80.11729 9275 ft 272 kts 304°
2026-05-04 17:47 25.65103 -80.13433 9035 ft 271 kts 302°
2026-05-04 17:47 25.65987 -80.15260 8832 ft 269 kts 294°
2026-05-04 17:47 25.66783 -80.17141 8660 ft 269 kts 295°
2026-05-04 17:48 25.67584 -80.19017 8483 ft 270 kts 295°
2026-05-04 17:48 25.68379 -80.20882 8306 ft 268 kts 295°
2026-05-04 17:48 25.69172 -80.22747 8075 ft 270 kts 295°
2026-05-04 17:48 25.69970 -80.24625 7751 ft 270 kts 295°
2026-05-04 17:49 25.70767 -80.26515 7440 ft 270 kts 292°
2026-05-04 17:49 25.71142 -80.28545 7047 ft 271 kts 270°
2026-05-04 17:49 25.71074 -80.30615 6799 ft 267 kts 268°
2026-05-04 17:49 25.70997 -80.32652 6529 ft 265 kts 268°
2026-05-04 17:50 25.70912 -80.34689 6236 ft 265 kts 268°
2026-05-04 17:50 25.70820 -80.36732 5913 ft 265 kts 268°
2026-05-04 17:50 25.70726 -80.38770 5624 ft 264 kts 268°
2026-05-04 17:50 25.70631 -80.40800 5293 ft 264 kts 268°
2026-05-04 17:51 25.70535 -80.42818 5004 ft 264 kts 268°
2026-05-04 17:51 25.70406 -80.44859 4691 ft 264 kts 266°
2026-05-04 17:51 25.70253 -80.46884 4393 ft 264 kts 266°
2026-05-04 17:51 25.70101 -80.48920 4087 ft 264 kts 266°
2026-05-04 17:52 25.69952 -80.50925 3794 ft 263 kts 266°
2026-05-04 17:52 25.69801 -80.52959 3496 ft 263 kts 266°
2026-05-04 17:52 25.69674 -80.54964 3238 ft 261 kts 269°
2026-05-04 17:52 25.69693 -80.56988 3005 ft 259 kts 275°
2026-05-04 17:53 25.69985 -80.58925 2983 ft 256 kts 294°
2026-05-04 17:53 25.71016 -80.60523 3002 ft 255 kts 324°
2026-05-04 17:53 25.72591 -80.61332 3000 ft 251 kts 353°
2026-05-04 17:53 25.74289 -80.61163 3001 ft 248 kts 22°
2026-05-04 17:54 25.75682 -80.60071 3002 ft 247 kts 49°
2026-05-04 17:54 25.76725 -80.58576 2985 ft 247 kts 53°
2026-05-04 17:54 25.77439 -80.56852 2996 ft 248 kts 80°
2026-05-04 17:54 25.77571 -80.54932 2991 ft 250 kts 86°
2026-05-04 17:55 25.77662 -80.53017 2983 ft 249 kts 85°
2026-05-04 17:55 25.77752 -80.51140 2977 ft 238 kts 85°
2026-05-04 17:55 25.77833 -80.49352 2980 ft 225 kts 85°
2026-05-04 17:55 25.77909 -80.47653 2930 ft 215 kts 85°
2026-05-04 17:56 25.77983 -80.45988 2661 ft 216 kts 86°
2026-05-04 17:56 25.78055 -80.44366 2406 ft 208 kts 86°
2026-05-04 17:56 25.78122 -80.42799 2117 ft 197 kts 86°
2026-05-04 17:56 25.78186 -80.41328 1880 ft 182 kts 85°
2026-05-04 17:57 25.78242 -80.40009 1647 ft 163 kts 85°
2026-05-04 17:57 25.78291 -80.38841 1419 ft 142 kts 85°
2026-05-04 17:57 25.78339 -80.37774 1223 ft 137 kts 85°
2026-05-04 17:57 25.78385 -80.36720 1043 ft 137 kts 85°
2026-05-04 17:58 25.78430 -80.35664 859 ft 136 kts 86°
2026-05-04 17:58 25.78476 -80.34600 680 ft 140 kts 86°
2026-05-04 17:58 25.78524 -80.33503 488 ft 141 kts 85°
2026-05-04 17:58 25.78571 -80.32436 275 ft 138 kts 85°
2026-05-04 17:59 25.78619 -80.31392 97 ft 136 kts 86°
2026-05-04 17:59 25.78660 -80.30368 19 ft 124 kts 88°
2026-05-04 17:59 25.78723 -80.29254 16 ft 28 kts 62°
2026-05-04 18:00 25.78800 -80.29153 16 ft 4 kts 57°
2026-05-04 18:00 25.78800 -80.29152 16 ft 0 kts 57°
2026-05-04 18:01 25.78810 -80.29132 16 ft 5 kts 66°
2026-05-04 18:02 25.78826 -80.29027 16 ft 9 kts 82°
2026-05-04 18:02 25.78843 -80.28944 16 ft 11 kts 75°
2026-05-04 18:02 25.78877 -80.28879 16 ft 8 kts 31°
2026-05-04 18:02 25.78932 -80.28868 16 ft 7 kts 360°
2026-05-04 18:03 25.78977 -80.28870 16 ft 6 kts 358°
2026-05-04 18:03 25.79020 -80.28872 16 ft 5 kts 353°
2026-05-04 18:03 25.79056 -80.28887 16 ft 5 kts 327°
2026-05-04 18:03 25.79081 -80.28917 16 ft 4 kts 305°
2026-05-04 18:04 25.79107 -80.28966 16 ft 11 kts 300°
2026-05-04 18:04 25.79143 -80.29047 16 ft 10 kts 280°
2026-05-04 18:04 25.79104 -80.29107 16 ft 2 kts 208°
2026-05-04 18:05 25.79094 -80.29113 16 ft 2 kts 209°
2026-05-04 18:05 25.79093 -80.29114 16 ft 0 kts 209°